Temp
39 38 37 36 37 37 36 37 39 39 39 38 38 38 38 38 38 38 37 37 36 35 36 35 34 35 35 36 36 35 34 33 29 34 37 37 36 35 35 36 35 35 35
36 35 34 34 35 36 37 38 39 38 38 38 38 38 37 37 37 37 36 36 35 34 34 34 33 34 34 34 35 34 33 34 31 28 33 33 33 34 34 33 32 33 33
35 35 33 33 34 35 36 37 37 37 38 38 37 36 36 35 35 36 36 35 35 34 34 33 32 33 33 33 33 33 33 33 33 30 29 33 33 33 31 31 31 30 31
33 32 32 32 34 36 36 37 37 37 37 36 36 35 35 35 36 35 35 34 34 33 33 33 32 32 31 32 32 33 32 31 32 30 29 29 29 30 28 26 23 26 25
32 31 31 34 35 35 36 36 36 36 35 36 35 35 35 35 35 34 34 34 33 32 32 32 32 31 29 30 30 31 31 30 30 28 26 25 25 24 22 23 20 22 22
31 29 33 34 35 34 34 34 34 34 35 35 35 34 35 34 33 32 33 33 32 31 31 32 32 30 30 29 29 30 31 28 26 24 23 22 22 22 21 20 18 15 13
31 33 34 34 33 33 33 34 33 33 34 33 33 34 34 35 34 33 31 32 31 32 31 31 30 31 29 29 30 31 28 26 26 25 22 21 19 20 19 16 15 14 12
34 34 33 33 32 32 32 32 32 33 33 32 32 33 33 32 33 33 32 33 32 32 31 30 29 29 29 28 30 26 25 26 26 25 23 21 21 20 19 17 14 12 13
33 33 33 33 31 31 31 31 31 31 31 31 32 31 31 32 31 32 32 32 31 30 30 30 29 28 28 29 24 23 23 23 25 23 22 21 20 19 18 14 9 7 6
33 32 33 32 32 32 31 30 30 32 31 31 30 31 28 30 29 30 31 31 29 29 29 28 27 27 28 27 24 20 17 20 17 16 14 15 15 14 15 13 10 4 4
33 32 31 32 31 32 30 29 29 29 29 28 28 28 28 27 28 29 29 29 28 27 27 27 27 27 26 26 24 19 19 20 14 11 11 12 12 12 12 12 11 8 4
30 29 29 29 30 30 27 27 27 27 26 25 25 26 26 26 26 27 28 28 29 27 25 26 26 23 22 21 20 20 19 13 11 9 9 9 9 9 9 9 8 8 8
27 26 26 27 27 27 26 25 26 26 26 25 25 25 24 25 26 25 26 27 27 27 27 23 21 19 19 17 16 15 11 10 8 6 6 6 7 8 7 7 8 9 8
25 24 25 25 25 24 27 27 26 26 25 24 24 24 23 24 24 26 26 27 26 25 20 19 18 17 15 14 12 12 10 8 5 4 4 5 7 6 5 7 5 6 4
24 23 24 25 24 24 24 25 24 24 26 24 24 23 22 21 23 26 25 24 22 19 16 17 15 14 12 12 11 9 8 7 5 5 3 3 3 4 4 6 4 4 2
23 24 25 25 24 24 23 23 26 26 27 27 25 24 23 24 24 24 24 23 21 18 14 12 11 11 9 8 6 6 6 4 4 3 2 2 1 1 1 2 4 2 1
25 24 25 24 24 23 23 23 20 24 26 25 23 23 23 22 23 23 21 20 18 14 11 10 9 8 7 6 5 4 2 3 0 -0 1 1 1 0 -1 0 1 1 1
25 22 24 24 23 23 22 22 22 20 18 18 18 19 19 20 20 20 19 15 12 11 8 7 5 5 4 3 3 1 1 0 -0 -0 -1 -1 -2 -2 -2 -2 -1 -2 -2
23 22 22 22 22 20 21 20 19 18 17 15 15 15 11 15 16 13 11 8 6 7 6 5 5 4 2 2 1 -0 -2 -3 -3 -5 -4 -4 -3 -3 -4 -3 -3 -4 -4
17 15 19 20 19 20 19 18 17 15 14 13 12 12 11 10 10 8 7 5 5 4 4 3 3 2 1 -1 -1 -2 -3 -4 -3 -4 -3 -3 -3 -3 -4 -4 -4 -4 -4
18 18 16 19 18 18 17 15 14 12 11 10 10 9 12 7 7 6 5 5 4 3 2 2 1 0 -0 -1 -3 -3 -4 -4 -4 -5 -5 -4 -4 -6 -5 -4 -5 -4 -4
19 18 17 16 15 14 13 12 11 10 9 9 8 7 8 5 5 4 4 3 3 1 0 -1 -2 -1 -2 -3 -3 -4 -5 -6 -4 -4 -4 -6 -7 -5 -5 -6 -6 -5 -5
17 15 14 13 12 8 10 9 9 9 7 6 5 5 4 4 3 2 1 1 0 -1 -1 -2 -4 -5 -3 -5 -5 -6 -7 -6 -4 -4 -6 -7 -7 -6 -5 -6 -7 -7 -6
15 14 13 11 10 9 9 7 6 1 4 5 4 4 3 2 1 0 -2 -1 -1 -2 -2 -4 -6 -7 -6 -6 -3 -3 -6 -8 -7 -8 -9 -10 -10 -9 -8 -8 -7 -7 -6
13 12 11 9 8 7 5 6 6 5 4 3 3 2 1 0 -1 -1 -0 -1 -4 -5 -4 -4 -5 -5 -6 -7 -8 -7 -6 -6 -7 -7 -7 -10 -12 -11 -11 -9 -8 -7 -6
9 8 7 6 5 5 6 6 5 3 2 2 1 0 -1 -2 -2 -2 -2 -3 -4 -4 -4 -4 -4 -5 -6 -6 -6 -5 -8 -5 -7 -9 -10 -9 -9 -8 -7 -7 -6 -5 -3
MSLP
1019.67 1020.40 1021.43 1023.16 1024.21 1024.71 1024.51 1025.62 1026.51 1027.32 1028.16 1028.74 1029.01 1029.36 1029.68 1029.89 1030.16 1030.36 1030.78 1030.90 1030.97 1031.24 1031.49 1031.50 1031.69 1031.73 1031.51 1031.66 1031.73 1031.72 1031.38 1031.42 1030.62 1029.77 1029.56 1029.15 1028.98 1028.77 1028.57 1028.48 1028.25 1027.47 1027.09
1020.29 1021.03 1023.73 1023.57 1024.55 1024.95 1025.93 1026.63 1027.34 1028.12 1028.83 1029.01 1029.27 1029.73 1030.23 1030.57 1030.71 1030.89 1031.21 1031.25 1031.26 1031.51 1031.80 1031.93 1031.97 1032.03 1031.81 1032.06 1031.88 1031.61 1031.65 1031.36 1031.02 1030.21 1029.60 1028.95 1028.88 1028.70 1028.38 1028.44 1027.97 1027.34 1026.78
1020.21 1022.68 1023.37 1024.52 1025.49 1026.12 1026.77 1027.29 1027.88 1028.61 1029.08 1029.52 1029.75 1030.16 1030.75 1031.16 1031.16 1031.36 1031.49 1031.56 1031.72 1031.79 1031.99 1032.13 1032.31 1032.31 1032.15 1031.95 1031.88 1031.71 1031.57 1031.24 1030.90 1030.03 1029.37 1029.14 1028.97 1028.80 1028.15 1028.27 1027.67 1027.23 1026.65
1022.28 1022.94 1024.58 1025.74 1026.05 1026.48 1027.34 1027.90 1028.40 1028.73 1029.42 1030.06 1030.56 1030.84 1031.21 1031.53 1031.66 1031.78 1031.87 1031.88 1031.90 1032.07 1032.44 1032.43 1032.44 1032.37 1032.07 1032.01 1032.06 1031.85 1031.57 1031.06 1030.49 1030.05 1029.49 1029.24 1029.03 1028.72 1028.53 1027.98 1027.54 1027.30 1026.44
1023.11 1023.97 1025.23 1025.97 1026.34 1026.98 1027.74 1028.19 1028.88 1029.40 1029.85 1030.61 1030.92 1031.06 1031.42 1031.71 1031.89 1032.05 1032.04 1031.94 1032.12 1032.48 1032.63 1032.51 1032.47 1032.83 1032.82 1032.61 1032.41 1032.10 1031.33 1030.61 1030.18 1030.00 1029.97 1029.69 1029.14 1028.87 1028.67 1028.44 1027.89 1027.07 1026.58
1023.50 1024.72 1025.30 1026.21 1027.04 1027.76 1028.14 1028.68 1029.41 1029.98 1030.36 1030.80 1031.15 1031.45 1031.59 1031.80 1032.07 1032.19 1032.14 1032.24 1032.42 1032.40 1032.47 1032.40 1032.76 1033.04 1032.59 1032.62 1032.17 1031.86 1031.39 1031.02 1030.96 1030.66 1030.61 1030.02 1029.52 1029.52 1029.29 1028.85 1028.05 1027.25 1026.09
1024.38 1025.03 1025.78 1026.65 1027.19 1027.99 1028.56 1028.97 1029.68 1030.14 1030.64 1031.07 1031.42 1031.47 1031.76 1031.91 1031.85 1032.32 1032.52 1032.46 1032.40 1032.37 1032.40 1032.56 1032.78 1032.64 1032.41 1032.17 1032.01 1031.55 1031.08 1031.74 1031.61 1031.40 1030.82 1030.52 1030.24 1030.17 1029.72 1028.96 1028.54 1028.01 1027.32
1024.69 1025.38 1026.00 1026.63 1027.30 1027.98 1028.80 1029.50 1030.01 1030.44 1030.88 1031.21 1031.66 1031.82 1031.98 1032.14 1032.27 1032.19 1032.27 1032.35 1032.25 1032.34 1032.58 1032.66 1032.88 1032.56 1032.48 1031.93 1031.33 1031.46 1031.55 1031.63 1031.56 1031.46 1031.42 1031.24 1031.03 1030.53 1030.15 1029.53 1028.95 1028.47 1027.72
1025.01 1025.72 1026.39 1027.01 1027.67 1028.59 1029.23 1030.05 1030.40 1030.91 1031.33 1031.74 1031.84 1032.03 1032.21 1032.40 1032.40 1032.17 1032.19 1032.30 1032.16 1032.63 1032.49 1032.66 1032.63 1032.56 1032.26 1031.48 1031.65 1031.64 1031.67 1031.65 1031.69 1031.86 1031.72 1031.57 1031.29 1030.92 1030.54 1029.92 1029.25 1028.62 1027.35
1025.10 1026.02 1026.92 1027.75 1028.37 1028.82 1029.24 1030.29 1030.81 1031.09 1031.23 1031.56 1031.92 1032.13 1032.49 1032.44 1032.67 1032.38 1032.44 1032.30 1032.66 1032.61 1032.34 1032.29 1032.62 1032.38 1031.88 1031.59 1031.73 1032.05 1032.02 1031.69 1032.15 1031.96 1031.99 1031.73 1031.55 1031.18 1030.74 1030.41 1029.75 1029.00 1028.10
1025.86 1026.78 1027.38 1027.94 1028.45 1029.14 1030.11 1030.81 1030.90 1031.24 1031.69 1031.90 1032.20 1032.40 1032.58 1032.70 1032.53 1032.68 1032.47 1032.50 1032.61 1032.46 1031.94 1031.97 1032.01 1032.02 1031.74 1031.83 1032.13 1032.54 1032.25 1031.91 1032.59 1032.53 1032.12 1031.72 1031.39 1030.98 1030.52 1030.14 1029.83 1029.38 1028.43
1026.34 1027.00 1027.83 1028.61 1029.25 1030.02 1030.53 1030.85 1031.12 1031.53 1032.01 1032.19 1032.10 1032.38 1032.51 1032.84 1033.21 1032.84 1032.53 1032.66 1032.45 1032.09 1031.87 1031.80 1031.85 1032.24 1032.37 1032.64 1032.76 1032.58 1032.52 1032.98 1032.85 1032.58 1032.24 1031.70 1031.32 1030.93 1030.42 1030.05 1029.60 1029.05 1028.41
1027.16 1027.89 1028.66 1029.39 1030.05 1030.45 1030.60 1030.87 1031.34 1031.85 1031.88 1031.92 1032.02 1032.32 1032.91 1033.16 1033.05 1032.98 1032.66 1032.50 1032.26 1031.91 1031.78 1032.24 1032.58 1032.80 1032.87 1032.94 1033.15 1033.06 1033.36 1033.08 1032.88 1032.67 1032.33 1031.86 1031.48 1031.00 1030.57 1029.61 1028.79 1028.14 1027.29
1027.91 1028.68 1029.39 1029.82 1030.17 1030.56 1030.94 1031.37 1031.63 1031.76 1031.74 1032.00 1032.41 1032.88 1033.03 1033.12 1032.96 1032.65 1032.38 1032.16 1032.03 1032.01 1032.68 1032.91 1032.95 1033.13 1033.29 1033.38 1033.39 1033.25 1033.26 1033.21 1033.35 1033.06 1032.47 1031.85 1031.39 1030.79 1030.02 1029.11 1028.26 1027.47 1026.60
1028.18 1028.86 1029.39 1030.02 1030.57 1031.11 1031.33 1031.62 1031.82 1032.17 1032.27 1032.41 1032.81 1033.10 1033.18 1033.09 1032.83 1032.53 1032.33 1032.06 1032.37 1033.01 1033.36 1033.13 1033.09 1033.12 1033.14 1033.11 1033.16 1033.24 1033.25 1033.18 1033.08 1032.74 1032.18 1031.67 1031.04 1030.39 1029.67 1028.89 1028.27 1027.40 1026.50
1028.57 1029.18 1029.56 1030.10 1030.83 1031.16 1031.62 1032.22 1032.19 1032.62 1032.64 1032.68 1033.11 1033.28 1033.38 1033.09 1032.90 1032.67 1032.48 1032.62 1032.76 1033.18 1033.57 1033.51 1033.37 1033.34 1033.34 1033.38 1033.37 1033.26 1033.13 1033.00 1032.78 1032.44 1032.00 1031.50 1030.83 1030.18 1029.49 1028.83 1028.05 1027.19 1026.14
1028.51 1029.28 1029.83 1030.11 1030.91 1031.49 1031.97 1032.15 1032.63 1033.06 1033.10 1033.37 1033.53 1033.47 1033.41 1033.50 1033.19 1032.97 1033.11 1033.30 1033.45 1033.74 1033.73 1033.66 1033.62 1033.58 1033.60 1033.66 1033.56 1033.40 1033.13 1032.99 1033.06 1032.39 1031.84 1031.28 1030.73 1030.07 1029.55 1028.58 1027.69 1026.85 1025.65
1028.82 1029.76 1030.27 1030.60 1031.44 1031.90 1032.14 1032.47 1032.75 1033.08 1033.44 1033.98 1034.33 1034.26 1034.17 1033.88 1033.59 1033.55 1033.73 1034.00 1034.01 1034.07 1034.15 1034.00 1033.90 1033.87 1033.85 1033.77 1033.57 1033.34 1033.09 1032.85 1032.52 1032.15 1031.55 1031.03 1030.56 1030.00 1029.18 1028.33 1027.47 1026.62 1025.56
1029.62 1030.20 1030.68 1031.19 1031.66 1032.10 1032.47 1032.83 1033.18 1033.48 1033.90 1034.35 1034.74 1034.69 1035.04 1034.50 1034.25 1034.57 1034.76 1034.72 1034.56 1034.35 1034.25 1034.13 1034.02 1033.98 1033.89 1033.72 1033.50 1033.29 1033.07 1032.66 1032.33 1032.02 1031.40 1030.82 1030.20 1029.71 1028.89 1028.13 1027.18 1026.28 1025.37
1030.42 1030.99 1031.28 1031.72 1032.28 1032.66 1033.02 1033.35 1033.74 1034.06 1034.34 1034.65 1034.88 1034.95 1035.13 1035.27 1034.82 1034.88 1034.99 1034.94 1034.80 1034.60 1034.38 1034.18 1033.99 1033.88 1033.73 1033.55 1033.31 1033.08 1032.71 1032.23 1031.80 1031.32 1030.73 1030.25 1029.71 1029.20 1028.44 1027.70 1026.91 1025.89 1024.78
1031.08 1031.56 1031.90 1032.27 1032.72 1033.22 1033.69 1033.91 1034.14 1034.47 1034.79 1035.10 1035.39 1035.54 1035.04 1035.43 1035.25 1035.11 1034.96 1034.77 1034.69 1034.54 1034.34 1034.11 1033.86 1033.62 1033.41 1033.20 1033.10 1032.67 1032.22 1031.67 1031.22 1030.74 1030.26 1029.65 1029.18 1028.65 1028.04 1027.31 1026.47 1025.56 1024.56
1031.56 1032.16 1032.63 1033.05 1033.49 1033.77 1034.06 1034.39 1034.76 1035.11 1035.44 1035.45 1035.51 1035.69 1035.51 1035.66 1035.39 1035.22 1035.01 1034.73 1034.52 1034.47 1034.34 1034.13 1033.69 1033.26 1032.93 1032.71 1032.36 1031.97 1031.52 1030.95 1030.37 1029.91 1029.46 1029.09 1028.67 1028.01 1027.45 1026.73 1025.98 1025.05 1024.10
1031.94 1032.42 1032.93 1033.46 1033.94 1034.52 1034.80 1035.19 1035.42 1035.55 1035.71 1035.82 1035.84 1035.84 1035.86 1035.62 1035.43 1035.23 1034.93 1034.60 1034.31 1033.98 1033.70 1033.55 1033.16 1032.61 1032.19 1031.94 1031.71 1031.32 1030.78 1029.99 1029.37 1029.08 1028.89 1028.53 1028.04 1027.41 1026.80 1026.09 1025.37 1024.51 1023.56
1032.72 1033.31 1033.83 1034.34 1034.75 1035.11 1035.30 1035.50 1035.74 1035.95 1035.91 1035.85 1035.80 1035.76 1035.67 1035.45 1035.18 1034.92 1034.73 1034.28 1033.88 1033.40 1032.98 1032.66 1032.34 1031.79 1031.14 1030.72 1030.28 1029.91 1029.55 1029.13 1028.73 1028.38 1028.36 1027.96 1027.28 1026.67 1026.08 1025.44 1024.71 1023.85 1022.96
1033.70 1034.09 1034.43 1034.73 1035.12 1035.53 1035.91 1035.97 1035.96 1036.00 1036.01 1035.97 1035.76 1035.59 1035.35 1035.15 1034.84 1034.45 1033.92 1033.58 1033.23 1032.75 1031.97 1031.51 1031.01 1030.41 1029.94 1029.44 1029.01 1028.50 1027.98 1027.54 1027.39 1027.13 1026.95 1026.82 1026.39 1025.70 1025.17 1024.59 1023.86 1023.05 1022.10
1034.21 1034.66 1035.06 1035.43 1035.65 1035.77 1035.84 1035.94 1036.03 1036.09 1036.03 1035.82 1035.66 1035.43 1035.11 1034.67 1034.22 1033.70 1033.16 1032.75 1032.26 1031.61 1030.84 1030.11 1029.44 1028.96 1028.45 1027.93 1027.28 1026.78 1026.38 1025.99 1025.82 1025.56 1025.65 1025.33 1024.84 1024.20 1023.80 1023.23 1022.57 1022.04 1020.97
Wind_Speed
14 15 11 11 12 10 12 11 10 11 10 9 9 9 8 8 7 8 7 6 7 6 5 4 5 4 3 3 3 2 3 4 8 8 9 9 12 12 11 11 12 12 11
14 18 9 12 11 12 10 12 10 10 8 9 9 9 8 7 7 6 6 5 5 5 4 4 5 3 4 3 4 5 5 6 7 12 10 10 11 13 12 14 11 10 11
17 14 14 11 10 11 11 11 10 10 9 9 8 9 8 6 7 6 5 5 5 5 5 4 3 3 3 4 5 6 6 6 8 9 11 9 10 11 12 12 12 14 12
13 14 14 10 10 11 10 9 10 10 9 8 8 8 7 6 5 5 5 5 4 4 2 1 3 3 4 6 7 8 7 8 9 9 10 11 11 11 11 12 12 12 13
13 13 12 10 10 10 10 10 10 9 9 8 8 7 6 5 3 4 4 4 3 2 0 2 3 4 3 7 7 9 10 8 9 10 10 12 11 11 12 11 12 12 13
13 12 10 10 10 10 10 10 9 9 8 7 6 6 5 3 7 6 4 2 1 1 3 2 4 4 5 10 10 12 12 10 11 10 11 12 14 13 12 12 12 12 13
12 11 11 12 11 9 10 10 9 8 7 6 6 5 4 4 6 5 3 0 2 2 4 4 5 4 6 8 11 14 6 7 11 11 13 12 15 15 15 15 14 13 13
11 12 11 10 11 10 9 9 8 7 7 5 4 4 4 2 2 3 4 4 4 4 4 4 5 6 7 10 11 5 5 7 10 8 11 13 14 14 14 13 14 14 12
11 12 10 9 10 9 9 8 6 6 5 4 4 4 3 3 1 2 4 4 4 5 4 5 6 6 9 14 4 6 9 11 8 13 16 19 18 18 15 10 10 11 11
10 9 9 8 10 10 9 7 5 5 5 4 5 4 3 2 2 3 4 3 5 5 5 4 5 7 12 9 8 8 10 11 8 12 11 12 12 12 15 10 9 10 11
10 10 9 9 8 8 8 5 6 5 5 5 4 3 3 3 4 5 4 4 4 6 5 5 4 9 9 11 12 7 11 13 11 9 9 8 8 8 8 9 10 9 11
10 9 9 8 6 6 7 6 6 5 4 4 3 3 3 4 3 3 5 6 7 5 5 5 4 6 9 9 9 13 14 10 6 7 8 8 8 8 9 10 12 12 11
10 10 9 8 6 5 7 7 5 4 3 3 3 2 1 1 1 4 6 5 7 6 4 4 5 6 7 6 10 11 8 5 6 7 8 8 8 9 11 11 11 13 14
11 9 7 8 7 5 4 4 4 3 3 3 2 2 2 1 2 3 3 3 5 4 2 3 5 5 4 5 5 6 5 5 6 6 7 8 8 8 9 9 10 11 11
9 7 7 6 6 6 5 3 4 3 2 3 2 1 1 2 3 6 7 6 4 4 1 3 4 4 5 5 5 5 5 5 6 6 7 8 8 8 9 9 10 10 11
8 7 6 6 5 5 5 5 6 6 5 4 7 4 2 3 6 7 8 6 5 4 2 3 4 4 5 6 6 7 6 6 6 7 8 7 8 9 10 10 9 10 11
8 7 6 6 5 5 5 6 7 6 9 9 6 6 6 5 7 7 6 8 8 4 3 3 4 5 6 6 6 6 7 7 8 7 8 8 8 9 10 10 10 10 11
8 7 6 5 5 4 4 4 4 5 4 2 6 6 7 7 6 8 9 6 3 3 3 4 5 5 5 6 6 7 7 7 7 7 8 8 8 8 9 10 10 10 11
7 6 6 5 5 5 5 4 4 4 3 3 1 2 6 6 5 6 5 3 4 5 5 6 5 6 6 6 7 7 7 8 7 8 8 8 8 8 9 10 11 13 13
7 8 6 6 5 5 4 4 4 3 3 2 1 2 3 3 4 4 3 3 4 5 5 6 6 6 6 6 7 7 7 8 8 7 8 8 8 8 9 10 10 11 11
6 6 6 6 5 5 4 4 4 3 3 2 2 3 2 3 4 5 5 5 5 6 6 7 7 7 7 7 7 7 8 8 8 8 7 8 8 9 9 9 11 10 11
6 6 5 6 5 5 5 4 3 3 2 1 1 3 6 3 4 5 6 7 6 6 6 7 7 7 7 7 7 7 8 9 8 8 8 8 8 9 9 9 10 10 11
7 7 6 5 6 6 5 4 3 2 1 1 2 3 4 4 5 6 7 7 7 7 6 6 8 7 7 7 7 8 9 9 9 8 9 9 9 9 9 9 10 10 10
7 7 7 6 5 4 4 3 2 1 2 3 3 4 5 6 7 8 8 8 7 8 7 7 7 10 9 8 8 8 9 9 8 8 10 9 9 10 9 9 10 12 11
6 6 6 5 4 3 3 2 1 1 3 3 4 5 6 7 8 8 8 7 7 8 9 8 8 11 13 13 13 14 14 16 13 12 8 11 12 13 11 9 10 10 13
6 6 5 4 3 3 2 0 2 3 4 5 5 6 7 8 8 8 8 8 8 9 11 9 11 15 16 13 15 16 16 16 14 15 10 10 10 10 9 12 14 10 13
Wind_Direction
101 100 95 106 113 107 105 107 113 116 124 127 121 117 114 107 103 101 100 107 96 89 86 84 79 52 49 26 348 317 315 297 294 300 301 313 314 317 321 320 316 318 316
108 95 95 96 98 101 102 110 116 116 123 125 122 114 110 104 106 112 114 110 109 106 91 74 53 29 24 347 331 318 305 301 292 299 305 316 317 322 320 318 314 312 310
100 114 98 94 109 107 107 117 118 124 119 115 114 112 113 116 114 111 116 119 109 88 68 54 41 352 342 341 323 297 300 295 301 303 311 318 317 318 324 312 317 318 314
99 99 104 113 118 116 117 120 123 118 118 109 106 112 115 117 121 126 127 115 97 80 73 46 15 342 322 327 316 306 306 307 310 307 314 316 318 325 318 321 318 318 319
111 109 117 120 111 112 125 118 115 115 112 118 119 117 122 131 132 131 111 99 104 137 292 348 327 333 325 326 312 315 314 313 318 321 318 316 319 322 325 323 310 317 319
107 117 118 114 120 121 118 119 117 116 120 125 125 136 138 125 126 107 92 99 83 333 306 291 301 263 282 317 306 302 303 322 323 325 317 314 316 323 320 318 314 321 319
124 127 129 134 127 124 124 124 126 127 133 137 148 146 139 132 134 139 133 76 299 298 314 317 311 300 307 316 302 293 28 352 329 321 313 321 322 320 321 320 319 316 314
131 134 133 135 133 130 124 121 126 138 143 143 145 148 140 123 196 191 196 251 280 322 315 307 296 310 317 311 316 26 344 325 324 330 324 319 316 320 322 319 321 313 304
143 147 141 131 125 124 125 129 122 133 139 145 140 131 141 148 270 266 262 276 320 310 311 291 304 299 320 323 42 349 333 324 328 316 318 319 323 327 326 327 322 321 314
146 130 123 116 130 131 129 136 137 151 134 129 122 108 104 158 17 345 325 327 306 305 291 286 256 311 318 352 3 353 331 328 323 321 322 324 327 323 328 322 317 312 311
114 119 123 124 119 123 130 144 137 118 117 111 115 100 88 41 27 3 352 313 289 294 311 313 314 315 348 356 358 334 324 336 328 320 317 319 323 322 319 315 309 302 300
119 110 106 108 120 136 131 116 110 116 117 118 106 92 52 28 335 319 310 304 308 312 313 317 336 19 9 357 348 337 340 338 324 320 318 320 324 321 316 311 303 291 284
114 111 115 117 122 127 129 123 115 122 126 99 77 81 111 240 283 303 324 328 315 311 345 53 41 15 353 340 341 342 344 331 322 316 315 312 311 307 304 299 301 300 294
116 119 127 126 114 98 109 119 131 129 108 109 152 167 173 223 354 329 318 319 305 341 34 55 3 356 348 329 316 337 334 330 321 304 299 299 303 303 303 307 309 315 311
123 123 122 120 138 131 94 98 109 77 114 140 146 134 73 45 354 352 339 343 58 73 7 339 334 331 325 332 330 329 320 313 304 302 295 302 302 303 303 308 307 307 301
136 146 151 143 136 123 127 116 92 125 138 115 120 113 106 17 360 348 355 29 59 35 322 321 319 325 321 320 315 314 311 307 309 302 298 298 300 302 305 307 300 303 303
141 143 136 128 141 144 146 139 128 112 104 88 72 52 40 11 358 1 32 6 358 356 330 325 317 317 315 311 308 310 309 309 310 291 295 294 293 295 301 303 305 305 303
113 114 133 120 132 133 122 126 141 164 168 132 31 45 26 15 2 13 360 337 323 336 324 314 306 310 310 307 307 302 299 299 294 294 290 289 290 292 299 300 302 302 302
119 118 115 113 108 117 125 118 109 113 110 99 40 65 18 1 11 9 17 3 323 309 308 303 307 306 303 299 295 293 290 285 289 290 284 283 285 288 291 295 298 297 296
88 95 109 120 128 116 108 114 116 107 100 86 64 10 343 314 339 335 327 311 291 288 297 298 301 295 289 286 286 286 285 282 280 276 277 280 284 285 288 292 293 299 299
111 116 107 107 102 102 106 100 90 88 88 66 36 345 54 336 319 311 311 306 300 299 298 295 294 289 285 282 279 277 274 277 277 276 278 282 284 286 288 290 292 291 293
118 113 102 106 115 107 96 91 92 92 87 50 340 311 333 299 302 301 297 295 293 286 281 278 278 275 273 273 275 275 274 275 277 275 277 278 281 284 288 289 289 291 295
116 119 115 104 98 107 94 89 98 97 71 307 305 304 307 298 293 288 288 289 288 283 277 266 269 271 265 254 253 256 264 267 271 275 277 280 281 283 286 288 289 292 294
108 109 109 105 100 104 115 122 121 194 303 308 304 298 292 291 289 288 284 282 281 279 273 265 257 259 272 266 264 255 248 251 259 260 259 265 271 276 274 273 277 283 287
105 109 113 121 123 112 129 146 189 292 299 294 294 289 289 287 284 281 282 281 276 278 274 268 260 261 261 259 258 260 259 260 255 256 255 249 256 262 263 267 272 280 284
113 110 107 116 130 147 145 213 302 295 286 287 284 283 283 283 282 285 284 275 274 272 274 270 265 261 262 266 263 259 259 261 257 247 235 239 247 251 252 261 268 272 280